Find SNUGLITE-2

NORAD ID: 52899 Int'l Des: 2022-065 Owner: SNU Country: KR operational
LEOCIRCULARRETROGRADESSO

当前视图

正在加载3D地球...

About SNUGLITE-2

SNUGLITE-2 (NORAD 52899) is a satellite launched Jun 21, 2022 by SNU of KR. It operates in LEO, CIRCULAR, RETROGRADE, SSO orbit with a mass of 4.00 kg.

即将过境

Passes for default location (London). Set your location on the main map for personalized predictions.

高度历史

Loading altitude history...

两行轨道根数

1 52899U 22065F 26194.88446559 .00000444 00000-0 93251-4 0 9995
2 52899 98.2232 339.6727 0006291 305.5443 54.5173 14.64393006214907
Epoch: Jul 13, 2026 • Age: 20 hours

当前状态

高度 695.2 km
远地点 / 近地点 N/A
速度 7.51 km/s
星下点 68.63°N, 11.61°W
发射日期 Jun 21, 2022
运行时间 4 years
类型 other

技术详情

分类 Payload
质量 4.00 kg
干质量 4.00 kg
总质量 4.00 kg
长度 0.30 m
直径 0.10 m
跨度 0.40 m
形状 Box+boom
制造商 SNU
平台类型 Cubesat 3U
阶段状态 In Orbit
所有者/国家 SNU/KR

Most Searched